Regional Weather Roundup
Issued by NWS Upton, NY

Current Version | Previous Version | Text Only | Print | Product List | Glossary On
Versions: 1 2 3 4 5 6 7 8 9 10 11 12 13 14 15 16 17 18 19 20 21 22 23 24 25 26 27 28 29 30 31 32 33 34 35 36 37 38 39 40 41 42 43 44 45 46 47 48 49 50
000 ASUS41 KOKX 151805 RWROKX REGIONAL WEATHER ROUNDUP NATIONAL WEATHER SERVICE NEW YORK NY 200 PM EDT MON SEP 15 2014 NOTE: "FAIR" INDICATES FEW OR NO CLOUDS BELOW 12,000 FEET WITH NO SIGNIFICANT WEATHER AND/OR OBSTRUCTIONS TO VISIBILITY. NYZ071-072-176-178-NJZ106-104-151900- NEW YORK CITY METRO AREA CITY SKY/WX TMP DP RH WIND PRES REMARKS CENTRAL PARK SUNNY 70 40 33 VRB3 30.19F LAGUARDIA APRT MOSUNNY 69 40 34 NW6 30.17F KENNEDY INTL MOSUNNY 70 40 33 VRB5 30.18F NEWARK/LIBERTY MOSUNNY 70 42 36 CALM 30.17F BRNX BOT. GARD N/A 68 41 37 W3 30.17F TETERBORO SUNNY 70 41 34 VRB5 30.16F $$ NYZ177-179-078>081-151900- LONG ISLAND NEW YORK CITY SKY/WX TMP DP RH WIND PRES REMARKS FARMINGDALE SUNNY 67 42 40 SW3 30.18F ISLIP MOSUNNY 68 41 37 NW7 30.16F SHIRLEY LGT RAIN 69 42 37 CALM 30.18F WESTHAMPTON SUNNY 69 41 36 NW12 30.18F MONTAUK POINT N/A 66 46 48 NW6 30.19F $$ NYZ052-065-067-151900- HUDSON VALLEY CITY SKY/WX TMP DP RH WIND PRES REMARKS WHITE PLAINS MOSUNNY 67 42 40 NW8 30.17F NEWBURGH MOSUNNY 66 48 52 VRB5 30.19F MONTGOMERY MOSUNNY 66 44 45 E3 30.16F POUGHKEEPSIE MOSUNNY 67 42 40 CALM 30.16F ALBANY MOSUNNY 64 39 39 N8 30.19F $$ NJZ001-105-106-008-010-013-015-019>022-104-151900- NEW JERSEY CITY SKY/WX TMP DP RH WIND PRES REMARKS NEWARK/LIBERTY MOSUNNY 70 42 36 CALM 30.17F TETERBORO SUNNY 70 41 34 VRB5 30.16F CALDWELL SUNNY 67 42 40 CALM 30.17F MORRISTOWN MOSUNNY 70 46 43 CALM 30.18 SOMERVILLE SUNNY 70 44 39 VRB3 30.16F LINDEN FAIR 73 45 36 N3 30.19F SUSSEX MOSUNNY 69 45 41 NE5 30.17F ANDOVER N/A 66 44 45 S5 30.18F TRENTON MOSUNNY 69 44 40 W7 30.18F MILLVILLE PTSUNNY 70 48 45 W8 30.19F ATLANTIC CITY PTSUNNY 70 49 47 VRB5 30.18F WRIGHTSTOWN MOSUNNY 69 48 47 NW5 30.16F TOMS RIVER MOSUNNY 66 48 52 E3 30.18F BELMAR CLOUDY 66 45 45 N5 30.18F $$ PAZ047>061-062-071-151900- EASTERN PENNSYLVANIA CITY SKY/WX TMP DP RH WIND PRES REMARKS PHILADELPHIA MOSUNNY 70 44 39 VRB3 30.19F ALLENTOWN SUNNY 68 42 38 VRB3 30.18F SCRANTON SUNNY 65 41 41 NE5 30.18F $$ CTZ002-004>006-009-010-012-RIZ004-006-007-MAZ004-011-015-151900- SOUTHERN NEW ENGLAND IN CT CITY SKY/WX TMP DP RH WIND PRES REMARKS BRADLEY INTL MOSUNNY 65 41 41 CALM 30.16F HARTFORD SUNNY 66 39 37 W8 30.16F DANBURY SUNNY 65 40 39 NW7 30.18F WTRBRY/OXFORD MOSUNNY 64 43 45 W7 30.18F BRIDGEPORT SUNNY 68 45 43 S12 30.17F MERIDEN SUNNY 68 40 35 VRB5 30.16F NEW HAVEN MOSUNNY 68 45 43 S9 30.17F CHESTER FAIR 64 39 39 NW5 30.18F GROTON SUNNY 66 48 52 S10 30.16F WILLIMANTIC SUNNY 66 41 40 VRB6 30.17F IN RI CITY SKY/WX TMP DP RH WIND PRES REMARKS PROVIDENCE MOSUNNY 68 42 38 W9 30.16F BLOCK ISLAND SUNNY 66 46 48 NW6 30.18S WESTERLY MOSUNNY 67 43 41 VRB6 30.17F IN MA CITY SKY/WX TMP DP RH WIND PRES REMARKS BOSTON PTSUNNY 63 45 51 E7 30.16F WORCESTER MOSUNNY 59 40 49 W6 30.17F WESTFIELD MOSUNNY 64 41 42 NE9 30.17F PROVINCETOWN PTSUNNY 63 48 59 N7 30.17F NANTUCKET CLOUDY 64 49 57 S8 30.16F $$ ANZ330-335-338-340-345-350-353-355-151900- COASTAL MARINE OBSERVATIONS STATION/POSITION TIME SKY/WX TEMP WIND PRES VSBY WAVE AIR SEA DIR/SP/G HT/PER (UTC) (F) (DEG/KT/KT) (MB) (MI) (FT/S) NY HARB ENTRANCE NOT AVBL 4S FIRE IS NOT AVBL 23SW MTP 1800 N/A 2/ 7 HUDSON CANYON 1800 67 75 30/ 2/ 4 1021.4 2/ 7 EXECUTION ROCKS 1800 66 73 140/ 4/ 8 N/A WESTERN LI SOUND 1800 64 190/ 6/ 8 N/A 1 CENTRAL LI SOUND 1700 63 72 230/ 6/ 8 N/A 1 EASTERN LI SOUND 1700 63 69 210/ 4/ 8 N/A ROBBINS REEF 1800 65 80/ 1/ 3 1020.7 $$ >>>>>>>>>>>>>>>>>>>>>>>>>>>> KEY <<<<<<<<<<<<<<<<<<<<<<<<<<< > < > SKY/WX - SKY CONDITION/PRESENT WEATHER < > TMP - TEMPERATURE IN FAHRENHEIT < > DP - DEWPOINT IN FAHRENHEIT < > RH - RELATIVE HUMIDITY IN PERCENT < > WIND - DIRECTION AND SPEED IN MPH < > PRES - MEAN SEA LEVEL PRESSURE IN INCHES OF HG < > WCI - WIND CHILL INDEX < > VSB - VISIBILITY IN MILES < > HX - HEAT INDEX < > TC - TEMPERATURE IN CELSIUS < > VRB - VARIABLE WIND DIRECTION < > < >>>>>>>>>>>>>>>>>>>>>>>>>>>> KEY <<<<<<<<<<<<<<<<<<<<<<<<<<<

USA.gov is the U.S. government's official web portal to all federal, state and local government web resources and services.